Torna al catalogo

STARLINK-37723

AttivoComunicazioniSSO
NORAD 69128·PAYLOAD·🇺🇸 United States

Lanciato May 20, 2026 da Vandenberg Space Force Base

Loading…

Prossimi Passaggi (prossime 24 ore)

TLE

AggiornatoSource: CelesTrak SupGP

Epoca: Sep 15, 2026, 03:05 UTC

1 69128C 26110E   26258.12895833 -.00041216  00000+0 -12791-2 0  2583
2 69128  97.2854  93.2131 0001653  97.2013 118.0004 15.33467317    14

Traccia STARLINK-37723 in tempo reale con AllMySat

Download on the App Store